sat.trackr.live / text

‹ back to catalog

TIANYI C

NORAD 64050 · 2025-103C

PAYLOAD ACTIVE UNKNOWN

§ Identity

Operator
Country
PRC
Launch date
2025-05-17
Launch site
JSC
Launch vehicle
Mass (kg)
RCS (m²)

External: N2YO · Heavens-Above · Gunter

§ Orbital elements

Epoch: 2026-09-21T22:28:17.848416Z

Period
94.72 min
Inclination
97.3665°
Eccentricity
0.0002760
Mean motion
15.20309060 rev/d
Perigee alt
503.0 km
Apogee alt
506.8 km
Semi-major
6,883.0 km
B*
1.5070e-4
RAAN
334.3860°
Arg perigee
152.2186°
Mean anomaly
207.9198°
Rev number
7,476

§ Raw data

TIANYI C1 64050U 25103C   26264.93631769  .00003207  00000+0  15070-3 0  99972 64050  97.3665 334.3860 0002760 152.2186 207.9198 15.20309060 74766

JSON: /api/v1/satellites/64050 · /tle

For live sub-satellite position, see the globe view (requires WebGL).

§ Visibility from observer

Set your observer location to see the next 7 days of passes ≥ 10°. The values pass through the URL so the page stays shareable.

No JS? Fill the form by hand. The geolocation button needs JavaScript.

§ Radio — SatNOGS DB

ModeDescriptionDownlinkUplink
FSK Mode U TLM 401.100 MHz

1 transmitter · refreshed weekly from db.satnogs.org